Location: Archemont
(49.1579°N, 1.7598°E)
Time: 11:14:32
(UTC+00:00)

S-56A Canister/Altair - Pass Details

Date: 20 April 2024
Orbit: 638 x 2488 km, 38.9° (Epoch: 20 May)

Event Time Altitude Azimuth Distance (km) Brightness Sun altitude
Rises 18:54:49 0° 253° (WSW) 3,484 11.9 -1.0°
Reaches altitude 10° 18:57:09 10° 245° (WSW) 2,724 11.1 -1.4°
Maximum altitude 19:03:15 40° 178° (S) 1,775 9.2 -2.3°
Drops below altitude 10° 19:12:07 10° 114° (ESE) 3,963 10.5 -3.7°
Enters shadow 19:14:22 - 110° (ESE) 4,668 10.8 -4.0°
Sets 19:16:15 0° 108° (ESE) 5,259 - -4.3°
